Saint Inigoes, MD

3:43 PM EDT on September 26, 2016 (GMT -0400)
Webster Naval Outlying Field

Weather History for KNUI - March, 2014

Change the Weather History Date:

Friday, March 14, 2014

  Actual Average (KNHK) Record (KNHK)
Temperature  
Mean Temperature 38 °F -  
Max Temperature 55 °F 55 °F 80 °F (2007)
Min Temperature 21 °F 36 °F 19 °F (2014)
Degree Days  
Heating Degree Days 28    
Moisture  
Dew Point 19 °F    
Average Humidity 48    
Maximum Humidity 71    
Minimum Humidity 22    
Precipitation  
Precipitation 0.00 in - - ()
Sea Level Pressure  
Sea Level Pressure 30.16 in    
Wind  
Wind Speed 5 mph (SSE)    
Max Wind Speed 15 mph    
Max Gust Speed 25 mph    
Visibility 10 miles    
Events      
Averages and records for this station are not official NWS values.
T = Trace of Precipitation, MM = Missing Value Source: NWS Daily Summary

Daily Weather History Graph

Daily Weather History Graph

Search for Another Location

Airport or City:

Trip Planner

Search our weather history database for the weather conditions in past years. The results will help you decide how hot, cold, wet, or windy it might be!

Date:

Astronomy

Mar. 14, 2014 Rise Set
Actual Time 7:18 AM EDT 7:11 PM EDT
Civil Twilight 6:52 AM EDT 7:38 PM EDT
Nautical Twilight 6:21 AM EDT 8:08 PM EDT
Astronomical Twilight 5:50 AM EDT 8:39 PM EDT
Moon 5:32 PM EDT (3/14) 5:55 AM EDT (3/14)
Length of Visible Light 12h 46m
Length of Day
11h 53m
Waxing Gibbous, 96% of the Moon is Illuminated
Mar 14
Waxing Gibbous
Mar 16
Full
Mar 23
Last Quarter
Mar 30
New
Apr 7
First Quarter

Hourly Weather History & Observations

Time (EDT) Temp. Windchill Dew Point Humidity Pressure Visibility Wind Dir Wind Speed Gust Speed Precip Events Conditions
12:53 AM 30.0 °F - 5.0 °F 35% 30.21 in 10.0 mi Calm Calm - N/A   Clear
1:53 AM 23.0 °F - 12.0 °F 63% 30.22 in 10.0 mi Calm Calm - N/A   Clear
2:53 AM 24.1 °F - 12.0 °F 60% 30.22 in 10.0 mi Calm Calm - N/A   Clear
3:53 AM 23.0 °F - 12.0 °F 63% 30.23 in 8.0 mi Calm Calm - N/A   Clear
4:53 AM 21.9 °F - 12.9 °F 68% 30.24 in 10.0 mi Calm Calm - N/A   Clear
5:53 AM 23.0 °F - 14.0 °F 68% 30.25 in 10.0 mi Calm Calm - N/A   Mostly Cloudy
6:53 AM 25.0 °F 18.1 °F 15.1 °F 66% 30.26 in 10.0 mi South 5.8 mph - N/A   Mostly Cloudy
7:53 AM 32.0 °F 25.6 °F 16.0 °F 52% 30.26 in 10.0 mi South 6.9 mph - N/A   Overcast
8:53 AM 34.0 °F 28.0 °F 16.0 °F 48% 30.28 in 10.0 mi South 6.9 mph - N/A   Overcast
9:53 AM 36.0 °F 27.1 °F 17.1 °F 46% 30.29 in 10.0 mi South 13.8 mph - N/A   Clear
10:53 AM 41.0 °F 35.8 °F 18.0 °F 40% 30.27 in 10.0 mi SSE 8.1 mph - N/A   Overcast
11:53 AM 44.1 °F 38.6 °F 16.0 °F 32% 30.25 in 10.0 mi SSE 10.4 mph - N/A   Clear
12:53 PM 48.0 °F - 14.0 °F 26% 30.23 in 10.0 mi South 10.4 mph - N/A   Clear
1:53 PM 51.1 °F - 16.0 °F 25% 30.18 in 10.0 mi South 12.7 mph - N/A   Clear
2:53 PM 54.0 °F - 16.0 °F 22% 30.14 in 10.0 mi South 11.5 mph 20.7 mph N/A   Clear
3:53 PM 51.1 °F - 23.0 °F 33% 30.10 in 10.0 mi SSE 13.8 mph - N/A   Clear
4:53 PM 51.1 °F - 24.1 °F 35% 30.06 in 10.0 mi SSE 11.5 mph - N/A   Clear
5:53 PM 48.9 °F - 25.0 °F 39% 30.03 in 10.0 mi SSE 12.7 mph 20.7 mph N/A   Clear
6:53 PM 46.0 °F 39.6 °F 28.0 °F 50% 30.03 in 10.0 mi SE 15.0 mph 25.3 mph N/A   Clear
7:53 PM 44.1 °F 37.7 °F 32.0 °F 63% 30.03 in 10.0 mi SSE 12.7 mph - N/A   Clear
8:53 PM 43.0 °F 36.8 °F 34.0 °F 71% 30.02 in 10.0 mi SSE 11.5 mph - N/A   Clear
9:53 PM 46.0 °F 40.2 °F 30.9 °F 56% 29.99 in 10.0 mi SSE 12.7 mph - N/A   Clear
10:53 PM 46.9 °F - 27.0 °F 46% 29.99 in 10.0 mi South 6.9 mph - N/A   Clear
11:53 PM 51.1 °F - 23.0 °F 33% 29.96 in 10.0 mi South 9.2 mph - N/A   Clear